FW4435 Weather Reports


time (UTC)temp
C
wind
direction
speed
KPH
gust
KPH
rain 1hr
cm
rain 24hr
cm
rain mn
cm
humidity
%
barometer
mb
20260507104652 5 254 9.7 12.9 0.00 0.00 0.00 89 1007.4
20260507104148 5 193 1.6 3.2 0.00 0.00 0.00 91 1007.4
20260507103644 5 180 3.2 3.2 0.00 0.00 0.00 94 1007.1
20260507103141 5 208 1.6 3.2 0.00 0.00 0.00 95 1007.1
20260507102638 4 151 0.0 0.0 0.00 0.00 0.00 95 1007.1
20260507102134 4 162 1.6 1.6 0.00 0.00 0.00 96 1007.1
20260507101630 3 127 1.6 1.6 0.00 0.00 0.00 96 1007.4
20260507101126 3 121 0.0 1.6 0.00 0.00 0.00 96 1007.4
20260507100624 3 131 0.0 0.0 0.00 0.00 0.00 95 1007.1
20260507100122 3 179 3.2 3.2 0.00 0.00 0.00 95 1007.1
20260507095620 3 129 0.0 1.6 0.00 0.00 0.00 95 1007.1
20260507095116 4 142 0.0 0.0 0.00 0.00 0.00 95 1007.1
20260507094612 3 152 0.0 0.0 0.00 0.00 0.00 95 1007.1
20260507094109 4 107 1.6 1.6 0.00 0.00 0.00 95 1007.1
20260507093606 3 177 1.6 1.6 0.00 0.00 0.00 95 1007.4
20260507093105 3 176 3.2 3.2 0.00 0.00 0.00 94 1007.1
20260507092601 3 134 0.0 0.0 0.00 0.00 0.00 94 1007.1
20260507092058 3 167 0.0 0.0 0.00 0.00 0.00 94 1007.1
20260507091555 5 141 0.0 0.0 0.00 0.00 0.00 93 1007.1
20260507091051 4 170 1.6 1.6 0.00 0.00 0.00 93 1007.1
20260507090546 4 167 1.6 3.2 0.00 0.00 0.00 94 1007.4
20260507090044 4 155 1.6 1.6 0.00 0.00 0.00 94 1007.4
20260507085541 4 140 1.6 1.6 0.00 0.00 0.00 94 1007.4
20260507085037 3 153 0.0 1.6 0.00 0.00 0.00 94 1007.4
20260507084534 3 194 3.2 3.2 0.00 0.00 0.00 94 1007.4
20260507084031 3 176 0.0 0.0 0.00 0.00 0.00 94 1007.4
20260507083527 3 203 3.2 3.2 0.00 0.00 0.00 94 1007.4
20260507083025 3 193 3.2 3.2 0.00 0.00 0.00 94 1007.1
20260507082521 3 195 3.2 4.8 0.00 0.00 0.00 94 1007.4
20260507082017 3 220 4.8 4.8 0.00 0.00 0.00 94 1007.4
20260507081513 4 200 6.4 6.4 0.00 0.00 0.00 94 1007.4
20260507081010 4 200 8.0 9.7 0.00 0.00 0.00 94 1007.4
20260507080506 4 244 3.2 4.8 0.00 0.00 0.00 94 1007.8
20260507080002 4 261 6.4 6.4 0.00 0.00 0.00 95 1007.4
20260507075458 4 210 4.8 4.8 0.00 0.00 0.00 96 1007.4
20260507074954 3 210 3.2 4.8 0.00 0.00 0.00 96 1007.4
20260507074451 3 167 1.6 1.6 0.00 0.00 0.00 96 1007.1
20260507073950 3 181 1.6 1.6 0.00 0.00 0.00 96 1007.4
20260507073445 3 178 3.2 4.8 0.00 0.00 0.00 96 1007.1
20260507072942 3 179 4.8 4.8 0.00 0.00 0.00 96 1007.1
20260507072440 3 157 1.6 1.6 0.00 0.00 0.00 96 1007.1
20260507071937 3 160 1.6 3.2 0.00 0.00 0.00 95 1006.8
20260507071434 4 160 3.2 3.2 0.00 0.00 0.00 95 1007.1
20260507070930 4 163 1.6 1.6 0.00 0.00 0.00 95 1006.8
20260507070428 4 149 1.6 1.6 0.00 0.00 0.00 95 1007.1
20260507065925 5 164 0.0 0.0 0.00 0.00 0.00 95 1007.1
20260507065421 5 143 0.0 0.0 0.00 0.00 0.00 95 1006.8
20260507064919 5 149 0.0 0.0 0.00 0.00 0.00 95 1007.1
20260507064417 5 128 1.6 1.6 0.00 0.00 0.00 94 1007.1
20260507063915 5 146 1.6 1.6 0.00 0.00 0.00 93 1007.4
20260507063411 5 131 0.0 0.0 0.00 0.00 0.00 93 1006.8
20260507062908 5 125 1.6 1.6 0.00 0.00 0.00 92 1006.8
20260507062405 5 165 0.0 0.0 0.00 0.00 0.00 92 1007.1
20260507061903 5 170 1.6 1.6 0.00 0.00 0.00 92 1007.1
20260507061401 5 51 3.2 4.8 0.00 0.00 0.00 92 1006.8
20260507060859 5 291 3.2 3.2 0.00 0.00 0.00 92 1007.1
20260507060355 5 163 0.0 1.6 0.00 0.00 0.00 92 1007.1
20260507055852 5 166 0.0 1.6 0.00 0.00 0.00 91 1007.1
20260507055347 5 159 0.0 1.6 0.00 0.00 0.00 91 1007.4
20260507054844 5 200 3.2 3.2 0.00 0.00 0.00 92 1007.8
20260507054340 5 191 4.8 4.8 0.00 0.00 0.00 92 1007.4
20260507053837 5 178 1.6 3.2 0.00 0.00 0.00 92 1007.4
20260507053335 5 177 3.2 4.8 0.00 0.00 0.00 92 1007.4
20260507052834 5 149 0.0 1.6 0.00 0.00 0.00 92 1007.4
20260507052330 5 158 0.0 1.6 0.00 0.00 0.00 91 1007.4
20260507051828 5 160 0.0 0.0 0.00 0.00 0.00 91 1007.4
20260507051325 5 63 3.2 4.8 0.00 0.00 0.00 92 1007.1
20260507050822 5 170 0.0 1.6 0.00 0.00 0.00 91 1007.4
20260507050318 5 287 1.6 3.2 0.00 0.00 0.00 92 1007.4
20260507045815 5 288 1.6 1.6 0.00 0.00 0.00 92 1007.8
20260507045312 5 278 3.2 4.8 0.00 0.00 0.00 93 1007.4
20260507044809 5 94 0.0 0.0 0.00 0.00 0.00 92 1007.4
20260507044306 5 144 0.0 0.0 0.00 0.00 0.00 92 1007.4
20260507043801 5 202 3.2 3.2 0.00 0.00 0.00 92 1007.1
20260507043258 5 158 0.0 0.0 0.00 0.00 0.00 91 1007.1
20260507042754 5 238 4.8 4.8 0.00 0.00 0.00 92 1007.4
20260507042249 5 175 1.6 1.6 0.00 0.00 0.00 93 1007.4
20260507041747 5 180 1.6 1.6 0.00 0.00 0.00 94 1007.1
20260507041244 5 209 1.6 1.6 0.00 0.00 0.00 93 1007.4
20260507040741 5 185 1.6 3.2 0.00 0.00 0.00 94 1007.4
20260507040237 5 277 3.2 4.8 0.00 0.00 0.00 95 1007.1
20260507035733 5 222 3.2 4.8 0.00 1.83 1.83 95 1007.1
20260507035228 5 168 1.6 1.6 0.00 1.83 1.83 95 1007.1
20260507034726 5 179 3.2 4.8 0.00 1.83 1.83 96 1007.4
20260507034223 6 157 1.6 1.6 0.00 1.83 1.83 97 1007.1
20260507033722 6 148 0.0 0.0 0.00 1.83 1.83 97 1007.4
20260507033219 6 148 0.0 0.0 0.00 1.83 1.83 97 1007.4
20260507032716 6 143 0.0 0.0 0.00 1.83 1.83 96 1007.4
20260507032212 6 170 1.6 1.6 0.00 1.83 1.83 97 1007.4
20260507031709 6 136 0.0 0.0 0.00 1.83 1.83 97 1007.4
20260507031205 6 307 6.4 9.7 0.00 1.83 1.83 97 1007.4
20260507030702 6 177 1.6 1.6 0.00 1.83 1.83 97 1007.4
20260507030200 6 181 1.6 1.6 0.00 1.83 1.83 97 1007.8
20260507025657 6 357 4.8 4.8 0.00 1.83 1.83 98 1007.4
20260507025154 6 157 0.0 0.0 0.00 1.83 1.83 98 1007.4
20260507024652 6 145 0.0 0.0 0.00 1.83 1.83 98 1007.4
20260507024149 6 198 3.2 4.8 0.00 1.83 1.83 98 1007.4
20260507023644 6 129 0.0 0.0 0.00 1.83 1.83 98 1007.4
20260507023142 6 139 0.0 0.0 0.00 1.83 1.83 98 1007.8
20260507022639 6 259 3.2 3.2 0.13 1.83 1.83 98 1007.8
20260507022134 6 171 1.6 1.6 0.13 1.83 1.83 98 1007.4
20260507021631 6 187 3.2 3.2 0.00 1.80 1.80 98 1008.1
20260507021126 6 156 0.0 0.0 0.00 1.80 1.80 98 1007.8
20260507020625 6 155 0.0 0.0 0.00 1.80 1.80 98 1007.8
20260507020121 6 97 1.6 1.6 0.00 1.80 1.80 98 1007.8
20260507015619 6 46 3.2 4.8 0.00 1.80 1.80 98 1007.8
20260507015116 6 144 1.6 1.6 0.00 1.80 1.80 98 1007.4
20260507014613 6 163 1.6 3.2 0.00 1.80 1.80 98 1007.4
20260507014109 6 102 1.6 3.2 0.18 1.80 1.80 98 1007.4
20260507013606 6 92 1.6 1.6 0.18 1.80 1.80 98 1007.4
20260507013103 6 174 1.6 1.6 0.00 1.78 1.78 98 1007.4
20260507012600 6 137 0.0 1.6 0.00 1.78 1.78 98 1007.4
20260507012055 6 133 1.6 1.6 0.00 1.78 1.78 97 1007.4
20260507011553 6 344 3.2 4.8 0.00 1.78 1.78 97 1007.4
20260507011044 6 139 0.0 1.6 0.00 1.78 1.78 97 1007.4
20260507010539 6 41 3.2 4.8 0.00 1.78 1.78 97 1007.4
20260507010035 6 171 0.0 0.0 0.13 1.78 1.78 97 1007.8
20260507005533 6 158 1.6 1.6 0.13 1.78 1.78 97 1007.1
20260507005029 6 245 4.8 4.8 0.00 1.75 1.75 97 1007.1
20260507004526 6 93 1.6 3.2 0.00 1.75 1.75 97 1007.4
20260507004023 6 17 4.8 11.3 0.18 1.75 1.75 97 1007.1
20260507003519 6 43 3.2 3.2 0.18 1.75 1.75 97 1006.8
20260507003014 6 39 4.8 4.8 0.00 1.73 1.73 97 1007.1
20260507002511 6 318 6.4 9.7 0.00 1.73 1.73 97 1006.8
20260507002007 6 191 3.2 3.2 0.00 1.73 1.73 97 1006.8
20260507001503 6 124 0.0 0.0 0.13 1.73 1.73 97 1006.8
20260507001001 6 125 1.6 1.6 0.13 1.73 1.73 97 1006.8
20260507000457 6 54 4.8 6.4 0.00 1.70 1.70 97 1006.4
20260506235952 6 49 3.2 4.8 0.00 1.70 1.70 98 1006.4
20260506235450 7 195 3.2 4.8 0.00 1.70 1.70 98 1006.4
20260506234946 6 134 3.2 4.8 0.00 1.70 1.70 98 1006.1
20260506234444 7 44 6.4 6.4 0.00 1.70 1.70 98 1006.1
20260506233941 7 48 3.2 3.2 0.00 1.70 1.70 98 1006.1
20260506233437 7 76 3.2 4.8 0.00 1.70 1.70 98 1005.8
20260506232934 7 102 3.2 3.2 0.00 1.70 1.70 98 1005.8
20260506232430 7 84 1.6 3.2 0.00 1.70 1.70 98 1005.8
20260506231926 7 48 4.8 6.4 0.00 1.70 1.70 98 1005.8
20260506231423 7 75 4.8 4.8 0.00 1.70 1.70 98 1005.8
20260506230921 7 31 12.9 16.1 0.00 1.70 1.70 98 1005.8
20260506230417 7 136 0.0 1.6 0.00 1.70 1.70 98 1005.3
20260506225914 7 36 3.2 3.2 0.00 1.70 1.70 98 1005.3
20260506225411 7 103 3.2 3.2 0.00 1.70 1.70 98 1005.8
20260506224908 7 50 1.6 3.2 0.00 1.70 1.70 98 1005.3
20260506224405 7 343 4.8 6.4 0.00 1.70 1.70 98 1005.3
20260506223901 7 94 0.0 1.6 0.00 1.70 1.70 98 1005.3
20260506223356 7 81 11.3 14.5 0.00 1.70 1.70 98 1005.0
20260506222854 7 153 0.0 0.0 0.00 1.70 1.70 98 1005.3
20260506222350 7 131 1.6 1.6 0.00 1.70 1.70 98 1005.3
20260506221848 7 155 0.0 0.0 0.00 1.70 1.70 98 1005.0
20260506221345 7 95 3.2 3.2 0.00 1.70 1.70 98 1005.0
20260506220842 7 108 0.0 0.0 0.00 1.70 1.70 98 1005.0
20260506220338 7 45 6.4 9.7 0.00 1.70 1.70 98 1005.3
20260506215835 7 39 3.2 3.2 0.00 1.70 1.70 98 1005.0
20260506215330 7 109 1.6 1.6 0.00 1.70 1.70 98 1004.6
20260506214827 7 44 6.4 6.4 0.00 1.70 1.70 98 1004.6
20260506214324 7 79 3.2 4.8 0.00 1.70 1.70 98 1005.0
20260506213822 8 75 4.8 4.8 0.00 1.70 1.70 98 1004.6
20260506213319 8 97 3.2 4.8 0.00 1.70 1.70 98 1004.6
20260506212816 8 76 1.6 3.2 0.00 1.70 1.70 98 1004.6
20260506212312 8 82 4.8 6.4 0.00 1.70 1.70 98 1004.6
20260506211807 8 105 1.6 1.6 0.00 1.70 1.70 99 1004.6
20260506211303 8 342 6.4 6.4 0.00 1.70 1.70 98 1005.0
20260506210801 8 68 4.8 4.8 0.00 1.70 1.70 98 1005.0
20260506210257 9 69 1.6 1.6 0.00 1.70 1.70 98 1004.6
20260506205754 10 79 3.2 4.8 0.00 1.70 1.70 98 1004.6
20260506205250 10 6 3.2 3.2 0.00 1.70 1.70 98 1004.6
20260506204747 10 175 1.6 3.2 0.00 1.70 1.70 98 1004.6
20260506204245 10 76 1.6 3.2 0.18 1.70 1.70 98 1004.3
20260506203742 10 75 0.0 1.6 0.30 1.70 1.70 98 1004.3
20260506203239 10 125 1.6 1.6 0.79 1.68 1.68 98 1004.3
20260506202736 11 338 8.0 9.7 1.09 1.63 1.63 98 1004.3
20260506202233 12 201 4.8 4.8 0.89 1.55 1.55 98 1004.0
20260506201730 13 304 6.4 6.4 0.61 1.45 1.45 98 1004.3
20260506201226 14 177 3.2 3.2 0.30 1.37 1.37 98 1004.0
20260506200723 14 250 4.8 4.8 0.13 1.35 1.35 98 1004.0
20260506200220 14 237 3.2 4.8 0.00 1.32 1.32 98 1004.0
20260506195716 14 163 3.2 3.2 0.00 1.32 1.32 98 1003.6
20260506195212 14 195 4.8 6.4 0.18 1.32 1.32 97 1004.0
20260506194705 14 204 3.2 3.2 0.13 1.30 1.30 97 1004.0
20260506194201 14 202 3.2 3.2 0.30 1.30 1.30 97 1004.0
20260506193658 14 179 3.2 6.4 0.36 1.27 1.27 97 1004.0
20260506193155 14 182 3.2 4.8 0.18 1.24 1.24 97 1004.3
20260506192652 14 173 3.2 4.8 0.00 1.22 1.22 98 1004.0
20260506192148 14 205 4.8 4.8 0.13 1.22 1.22 98 1004.3
20260506191646 14 168 1.6 1.6 0.13 1.22 1.22 98 1004.3
20260506191141 14 152 0.0 0.0 0.00 1.19 1.19 98 1004.3
20260506190639 13 208 6.4 6.4 0.00 1.19 1.19 98 1004.3
20260506190135 14 162 3.2 3.2 0.18 1.19 1.19 99 1004.0
20260506185633 14 156 1.6 3.2 0.18 1.19 1.19 99 1004.3
20260506185129 13 151 3.2 3.2 0.00 1.17 1.17 99 1004.3
20260506184626 13 156 0.0 1.6 0.00 1.17 1.17 99 1004.6
20260506184123 13 155 0.0 0.0 0.00 1.17 1.17 99 1004.3
20260506183620 13 160 0.0 1.6 0.00 1.17 1.17 99 1004.6
20260506183116 13 175 1.6 1.6 0.00 1.17 1.17 99 1004.6
20260506182614 13 175 3.2 3.2 0.00 1.17 1.17 99 1004.6
20260506182110 13 186 0.0 0.0 0.30 1.17 1.17 99 1004.6
20260506181609 13 113 1.6 1.6 0.30 1.14 1.14 99 1004.6
20260506181105 13 187 3.2 3.2 0.30 1.12 1.12 98 1005.0
20260506180602 13 117 0.0 1.6 0.30 1.09 1.09 98 1004.6
20260506180059 13 135 0.0 0.0 0.30 1.07 1.07 98 1005.0
20260506175555 13 159 0.0 0.0 0.30 1.04 1.04 98 1005.3
20260506175051 13 160 0.0 0.0 0.43 1.02 1.02 98 1005.3
20260506174550 13 158 1.6 1.6 0.48 0.97 0.97 97 1005.3
20260506174046 13 169 0.0 0.0 0.48 0.94 0.94 97 1005.3
20260506173544 13 179 1.6 1.6 0.43 0.89 0.89 97 1005.3
20260506173040 13 172 0.0 0.0 0.43 0.84 0.84 97 1005.3
20260506172538 13 188 1.6 1.6 0.48 0.81 0.81 97 1005.3
20260506172034 13 189 1.6 3.2 0.61 0.76 0.76 97 1005.8
20260506171531 13 178 8.0 9.7 0.79 0.71 0.71 97 1005.8
20260506171029 13 156 3.2 3.2 0.66 0.66 0.66 97 1006.1
20260506170526 13 162 1.6 1.6 0.48 0.58 0.58 97 1005.8
20260506170023 13 167 1.6 1.6 0.43 0.56 0.56 96 1005.8
20260506165522 13 162 0.0 0.0 0.61 0.51 0.51 96 1005.8
20260506165018 13 160 3.2 3.2 1.27 0.48 0.48 95 1006.1
20260506164514 13 210 1.6 1.6 0.48 0.33 0.33 95 1006.1
20260506164012 13 195 1.6 1.6 0.13 0.28 0.28 95 1005.8
20260506163508 13 160 1.6 1.6 0.18 0.25 0.25 94 1005.8
20260506163004 13 133 0.0 0.0 0.30 0.25 0.25 95 1005.8
20260506162500 13 164 3.2 4.8 0.13 0.23 0.23 94 1006.1
20260506161957 13 197 1.6 1.6 0.18 0.20 0.20 94 1006.1
20260506161455 13 183 6.4 6.4 0.13 0.18 0.18 94 1006.1
20260506160952 13 189 1.6 3.2 0.13 0.18 0.18 94 1006.4
20260506160449 13 220 1.6 3.2 0.00 0.15 0.15 94 1006.4
20260506155946 13 192 6.4 6.4 0.18 0.15 0.15 93 1006.4
20260506155444 13 193 3.2 3.2 0.18 0.15 0.15 94 1006.4
20260506153611 13 126 1.6 1.6 0.13 0.13 0.13 94 1006.8
20260506153108 13 206 6.4 9.7 0.00 0.10 0.10 93 1006.8
20260506152605 13 150 0.0 1.6 0.00 0.10 0.10 94 1006.8
20260506152103 12 206 6.4 6.4 0.00 0.10 0.10 93 1007.1
20260506151601 12 174 1.6 1.6 0.18 0.10 0.10 93 1007.1
20260506151058 12 191 1.6 1.6 0.18 0.10 0.10 93 1007.1
20260506150554 12 190 3.2 3.2 0.00 0.08 0.08 93 1007.4
20260506150051 12 181 4.8 4.8 0.00 0.08 0.08 93 1007.1
20260506145548 12 181 1.6 1.6 0.13 0.08 0.08 93 1007.4
20260506145045 12 191 1.6 1.6 0.13 0.08 0.08 93 1007.1
20260506144542 12 195 3.2 3.2 0.00 0.05 0.05 93 1007.1
20260506144039 12 223 4.8 4.8 0.18 0.05 0.05 92 1007.4
20260506143537 12 168 1.6 3.2 0.18 0.05 0.05 92 1007.4
20260506143035 13 179 1.6 1.6 0.13 0.03 0.03 91 1007.4
20260506142532 13 168 0.0 1.6 0.13 0.03 0.03 91 1007.4
20260506142031 13 186 1.6 1.6 0.00 0.00 0.00 90 1007.1
20260506141528 13 223 6.4 6.4 0.00 0.00 0.00 90 1007.1
20260506141026 13 184 3.2 3.2 0.00 0.00 0.00 90 1007.1
20260506140523 13 171 3.2 4.8 0.00 0.00 0.00 89 1007.1
20260506140020 13 184 4.8 4.8 0.00 0.00 0.00 89 1007.1
20260506135517 13 202 3.2 4.8 0.00 0.00 0.00 89 1007.4
20260506135013 12 177 4.8 4.8 0.00 0.00 0.00 90 1007.1
20260506134510 12 201 4.8 4.8 0.00 0.00 0.00 90 1007.1
20260506134006 12 176 0.0 1.6 0.00 0.00 0.00 90 1007.1
20260506133503 12 201 3.2 4.8 0.00 0.00 0.00 90 1007.1
20260506133000 12 170 0.0 0.0 0.00 0.00 0.00 90 1007.1
20260506132457 12 179 0.0 1.6 0.00 0.00 0.00 91 1007.4
20260506131954 12 172 3.2 3.2 0.00 0.00 0.00 91 1007.4
20260506131451 12 208 4.8 6.4 0.00 0.00 0.00 91 1007.4
20260506130948 12 201 6.4 6.4 0.00 0.00 0.00 91 1007.4
20260506130444 12 201 6.4 9.7 0.00 0.00 0.00 91 1007.8
20260506125942 12 206 4.8 4.8 0.00 0.00 0.00 91 1007.8
20260506125440 12 206 6.4 9.7 0.00 0.00 0.00 91 1007.8
20260506124938 12 195 6.4 6.4 0.00 0.00 0.00 91 1007.4
20260506124435 12 180 1.6 1.6 0.00 0.00 0.00 91 1007.4
20260506123933 12 105 1.6 1.6 0.00 0.00 0.00 90 1007.4
20260506123431 12 180 1.6 3.2 0.00 0.00 0.00 90 1007.4
20260506122929 12 181 6.4 6.4 0.00 0.00 0.00 90 1007.4
20260506122425 12 190 4.8 4.8 0.00 0.00 0.00 90 1007.4
20260506121924 12 190 6.4 6.4 0.00 0.00 0.00 90 1007.4
20260506121420 12 190 6.4 6.4 0.00 0.00 0.00 90 1007.8
20260506120917 12 249 6.4 9.7 0.00 0.00 0.00 90 1007.8
20260506120414 12 213 1.6 3.2 0.00 0.00 0.00 90 1007.8
20260506115912 12 174 3.2 3.2 0.00 0.00 0.00 90 1007.4
20260506115410 12 189 6.4 6.4 0.00 0.00 0.00 90 1007.8
20260506114908 12 246 8.0 11.3 0.00 0.00 0.00 90 1007.8
20260506114405 12 213 3.2 3.2 0.00 0.00 0.00 90 1007.8
20260506113904 12 191 3.2 3.2 0.00 0.00 0.00 90 1007.4
20260506113401 12 208 11.3 17.7 0.00 0.00 0.00 90 1007.8
20260506112857 12 212 8.0 11.3 0.00 0.00 0.00 91 1007.4
20260506112354 12 206 8.0 9.7 0.00 0.00 0.00 93 1007.4
20260506111851 12 194 6.4 6.4 0.00 0.00 0.00 95 1007.4
20260506111350 11 184 3.2 4.8 0.00 0.00 0.00 96 1007.4
20260506110847 11 207 3.2 3.2 0.00 0.00 0.00 97 1007.4
20260506110344 11 198 0.0 0.0 0.00 0.00 0.00 97 1007.4
20260506105841 11 198 4.8 4.8 0.00 0.00 0.00 97 1007.8
20260506105337 11 185 0.0 0.0 0.00 0.00 0.00 97 1008.1
20260506104835 11 187 0.0 1.6 0.00 0.00 0.00 97 1007.8